Time,TemperatureF,DewpointF,PressureIn,WindDirection,WindDirectionDegrees,WindSpeedMPH,WindSpeedGustMPH,Humidity,HourlyPrecipIn,Conditions,Clouds,dailyrainin,SoftwareType,DateUTC
2013-02-27 00:07:00,32.0,31.8,29.42,SE,135,0.0,-999.0,99,-99.99,,,0.00,Acu-Link.com,2013-02-27 05:07:00,
2013-02-27 00:22:00,32.4,32.2,29.41,SE,135,0.0,-999.0,99,-99.99,,,0.00,Acu-Link.com,2013-02-27 05:22:00,
2013-02-27 00:37:00,33.1,32.8,29.41,SE,135,0.0,-999.0,99,-99.99,,,0.00,Acu-Link.com,2013-02-27 05:37:00,
2013-02-27 00:53:00,33.8,33.5,29.41,WSW,247,2.7,-999.0,99,-99.99,,,0.00,Acu-Link.com,2013-02-27 05:53:00,
2013-02-27 01:08:00,33.6,33.3,29.41,West,270,2.2,-999.0,99,-99.99,,,0.01,Acu-Link.com,2013-02-27 06:08:00,
2013-02-27 01:23:00,33.1,32.8,29.42,West,270,2.7,-999.0,99,-99.99,,,0.01,Acu-Link.com,2013-02-27 06:23:00,
2013-02-27 01:38:00,33.4,33.1,29.42,WSW,247,4.2,-999.0,99,-99.99,,,0.01,Acu-Link.com,2013-02-27 06:38:00,
2013-02-27 01:53:00,32.9,32.7,29.42,West,270,5.8,-999.0,99,-99.99,,,0.01,Acu-Link.com,2013-02-27 06:53:00,
2013-02-27 02:08:00,33.1,32.8,29.42,West,270,7.8,-999.0,99,-99.99,,,0.01,Acu-Link.com,2013-02-27 07:08:00,
2013-02-27 02:23:00,33.8,33.5,29.42,WNW,292,5.3,-999.0,99,-99.99,,,0.01,Acu-Link.com,2013-02-27 07:23:00,
2013-02-27 02:39:00,34.2,33.9,29.41,WSW,247,5.8,-999.0,99,-99.99,,,0.02,Acu-Link.com,2013-02-27 07:39:00,
2013-02-27 02:54:00,34.3,34.0,29.41,WSW,247,4.7,-999.0,99,-99.99,,,0.03,Acu-Link.com,2013-02-27 07:54:00,
2013-02-27 03:09:00,34.2,33.9,29.41,WSW,247,4.7,-999.0,99,-99.99,,,0.04,Acu-Link.com,2013-02-27 08:09:00,
2013-02-27 03:24:00,34.9,34.6,29.40,WSW,247,5.3,-999.0,99,-99.99,,,0.05,Acu-Link.com,2013-02-27 08:24:00,
2013-02-27 03:39:00,35.6,34.8,29.40,West,270,8.9,-999.0,97,-99.99,,,0.06,Acu-Link.com,2013-02-27 08:39:00,
2013-02-27 03:55:00,35.8,34.5,29.41,WSW,247,7.3,-999.0,95,-99.99,,,0.08,Acu-Link.com,2013-02-27 08:55:00,
2013-02-27 04:18:00,35.8,34.2,29.41,SW,225,7.3,-999.0,94,-99.99,,,0.08,Acu-Link.com,2013-02-27 09:18:00,
2013-02-27 04:33:00,35.2,33.6,29.42,SW,225,7.3,-999.0,94,-99.99,,,0.10,Acu-Link.com,2013-02-27 09:33:00,
2013-02-27 04:48:00,35.1,33.3,29.42,West,270,7.3,-999.0,93,-99.99,,,0.10,Acu-Link.com,2013-02-27 09:48:00,
2013-02-27 05:03:00,35.1,33.0,29.42,WSW,247,9.9,-999.0,92,-99.99,,,0.11,Acu-Link.com,2013-02-27 10:03:00,
2013-02-27 05:18:00,35.4,33.0,29.43,WSW,247,5.8,-999.0,91,-99.99,,,0.11,Acu-Link.com,2013-02-27 10:18:00,
2013-02-27 05:33:00,35.2,32.8,29.43,West,270,6.3,-999.0,91,-99.99,,,0.11,Acu-Link.com,2013-02-27 10:33:00,
2013-02-27 05:49:00,35.2,32.8,29.43,West,270,9.9,-999.0,91,-99.99,,,0.11,Acu-Link.com,2013-02-27 10:49:00,
2013-02-27 06:04:00,35.8,32.3,29.44,West,270,19.7,-999.0,87,-99.99,,,0.12,Acu-Link.com,2013-02-27 11:04:00,
2013-02-27 06:19:00,35.6,31.8,29.44,West,270,15.5,-999.0,86,-99.99,,,0.12,Acu-Link.com,2013-02-27 11:19:00,
2013-02-27 06:34:00,35.4,31.6,29.44,West,270,14.0,-999.0,86,-99.99,,,0.12,Acu-Link.com,2013-02-27 11:34:00,
2013-02-27 06:49:00,35.2,31.2,29.44,West,270,13.0,-999.0,85,-99.99,,,0.12,Acu-Link.com,2013-02-27 11:49:00,
2013-02-27 07:04:00,35.2,31.2,29.45,West,270,13.5,-999.0,85,-99.99,,,0.13,Acu-Link.com,2013-02-27 12:04:00,
2013-02-27 07:19:00,36.0,31.3,29.46,West,270,12.5,-999.0,83,-99.99,,,0.13,Acu-Link.com,2013-02-27 12:19:00,
2013-02-27 07:34:00,35.8,31.4,29.49,West,270,10.4,-999.0,84,-99.99,,,0.13,Acu-Link.com,2013-02-27 12:34:00,
2013-02-27 07:49:00,34.9,32.3,29.49,WSW,247,11.9,-999.0,90,-99.99,,,0.13,Acu-Link.com,2013-02-27 12:49:00,
2013-02-27 08:04:00,34.3,32.2,29.50,West,270,10.4,-999.0,92,-99.99,,,0.13,Acu-Link.com,2013-02-27 13:04:00,
2013-02-27 08:19:00,34.9,32.8,29.50,West,270,7.8,-999.0,92,-99.99,,,0.14,Acu-Link.com,2013-02-27 13:19:00,
2013-02-27 08:34:00,36.3,33.4,29.51,West,270,7.8,-999.0,89,-99.99,,,0.15,Acu-Link.com,2013-02-27 13:34:00,
2013-02-27 08:50:00,37.4,33.9,29.52,West,270,9.9,-999.0,87,-99.99,,,0.15,Acu-Link.com,2013-02-27 13:50:00,
2013-02-27 09:05:00,37.6,33.5,29.52,SW,225,14.0,-999.0,85,-99.99,,,0.16,Acu-Link.com,2013-02-27 14:05:00,
2013-02-27 09:20:00,38.5,33.5,29.52,West,270,4.7,-999.0,82,-99.99,,,0.17,Acu-Link.com,2013-02-27 14:20:00,
2013-02-27 09:35:00,38.8,32.2,29.53,West,270,8.3,-999.0,77,-99.99,,,0.20,Acu-Link.com,2013-02-27 14:35:00,
2013-02-27 09:50:00,39.4,32.8,29.53,West,270,6.8,-999.0,77,-99.99,,,0.21,Acu-Link.com,2013-02-27 14:50:00,
2013-02-27 10:05:00,38.7,31.1,29.54,West,270,18.1,-999.0,74,-99.99,,,0.21,Acu-Link.com,2013-02-27 15:05:00,
2013-02-27 10:20:00,39.0,31.8,29.53,West,270,7.3,-999.0,75,-99.99,,,0.22,Acu-Link.com,2013-02-27 15:20:00,
2013-02-27 10:35:00,39.2,31.6,29.54,West,270,8.3,-999.0,74,-99.99,,,0.22,Acu-Link.com,2013-02-27 15:35:00,
2013-02-27 10:51:00,39.0,31.8,29.55,West,270,13.5,-999.0,75,-99.99,,,0.23,Acu-Link.com,2013-02-27 15:51:00,
2013-02-27 11:06:00,39.2,31.3,29.55,West,270,12.5,-999.0,73,-99.99,,,0.23,Acu-Link.com,2013-02-27 16:06:00,
2013-02-27 11:21:00,39.7,31.8,29.55,WSW,247,11.4,-999.0,73,-99.99,,,0.23,Acu-Link.com,2013-02-27 16:21:00,
2013-02-27 11:36:00,39.7,32.1,29.55,West,270,10.4,-999.0,74,-99.99,,,0.23,Acu-Link.com,2013-02-27 16:36:00,
2013-02-27 11:51:00,40.1,31.8,29.55,SW,225,14.0,-999.0,72,-99.99,,,0.23,Acu-Link.com,2013-02-27 16:51:00,
2013-02-27 12:06:00,39.4,31.8,29.56,West,270,11.4,-999.0,74,-99.99,,,0.23,Acu-Link.com,2013-02-27 17:06:00,
2013-02-27 12:21:00,38.8,31.6,29.56,WSW,247,16.1,-999.0,75,-99.99,,,0.23,Acu-Link.com,2013-02-27 17:21:00,
2013-02-27 12:36:00,39.0,31.8,29.56,WSW,247,10.9,-999.0,75,-99.99,,,0.23,Acu-Link.com,2013-02-27 17:36:00,
2013-02-27 12:52:00,39.2,31.3,29.55,WSW,247,17.6,-999.0,73,-99.99,,,0.23,Acu-Link.com,2013-02-27 17:52:00,
2013-02-27 13:07:00,40.1,32.2,29.54,WSW,247,14.5,-999.0,73,-99.99,,,0.23,Acu-Link.com,2013-02-27 18:07:00,
2013-02-27 13:22:00,40.5,32.5,29.54,West,270,15.0,-999.0,73,-99.99,,,0.23,Acu-Link.com,2013-02-27 18:22:00,
2013-02-27 13:37:00,40.1,32.2,29.54,West,270,8.9,-999.0,73,-99.99,,,0.23,Acu-Link.com,2013-02-27 18:37:00,
2013-02-27 13:52:00,40.5,32.5,29.53,SW,225,6.8,-999.0,73,-99.99,,,0.23,Acu-Link.com,2013-02-27 18:52:00,
2013-02-27 14:07:00,41.0,32.7,29.52,West,270,11.9,-999.0,72,-99.99,,,0.23,Acu-Link.com,2013-02-27 19:07:00,
2013-02-27 14:22:00,41.7,33.0,29.52,West,270,6.3,-999.0,71,-99.99,,,0.23,Acu-Link.com,2013-02-27 19:22:00,
2013-02-27 14:37:00,43.0,33.5,29.52,SW,225,9.4,-999.0,69,-99.99,,,0.23,Acu-Link.com,2013-02-27 19:37:00,
2013-02-27 14:52:00,43.0,33.2,29.52,West,270,5.8,-999.0,68,-99.99,,,0.23,Acu-Link.com,2013-02-27 19:52:00,
2013-02-27 15:08:00,44.8,34.1,29.50,West,270,5.3,-999.0,66,-99.99,,,0.23,Acu-Link.com,2013-02-27 20:08:00,
2013-02-27 15:23:00,45.7,34.2,29.50,West,270,9.4,-999.0,64,-99.99,,,0.23,Acu-Link.com,2013-02-27 20:23:00,
2013-02-27 15:38:00,46.0,34.1,29.49,SW,225,9.9,-999.0,63,-99.99,,,0.23,Acu-Link.com,2013-02-27 20:38:00,
2013-02-27 15:53:00,46.8,34.5,29.49,West,270,8.9,-999.0,62,-99.99,,,0.23,Acu-Link.com,2013-02-27 20:53:00,
2013-02-27 16:08:00,46.2,34.3,29.49,WSW,247,8.3,-999.0,63,-99.99,,,0.23,Acu-Link.com,2013-02-27 21:08:00,
2013-02-27 16:24:00,45.0,34.0,29.49,West,270,5.8,-999.0,65,-99.99,,,0.23,Acu-Link.com,2013-02-27 21:24:00,
2013-02-27 16:39:00,44.4,33.8,29.49,West,270,5.3,-999.0,66,-99.99,,,0.23,Acu-Link.com,2013-02-27 21:39:00,
2013-02-27 16:54:00,45.1,33.7,29.49,West,270,4.2,-999.0,64,-99.99,,,0.23,Acu-Link.com,2013-02-27 21:54:00,
2013-02-27 17:09:00,44.4,33.4,29.50,West,270,7.3,-999.0,65,-99.99,,,0.23,Acu-Link.com,2013-02-27 22:09:00,
2013-02-27 17:24:00,45.1,34.0,29.50,WNW,292,2.2,-999.0,65,-99.99,,,0.23,Acu-Link.com,2013-02-27 22:24:00,
2013-02-27 17:40:00,44.2,33.6,29.51,West,270,5.8,-999.0,66,-99.99,,,0.23,Acu-Link.com,2013-02-27 22:40:00,
2013-02-27 17:55:00,43.7,33.5,29.51,East,90,0.0,-999.0,67,-99.99,,,0.23,Acu-Link.com,2013-02-27 22:55:00,
2013-02-27 18:10:00,42.8,33.0,29.51,WSW,247,0.0,-999.0,68,-99.99,,,0.23,Acu-Link.com,2013-02-27 23:10:00,
2013-02-27 18:25:00,39.2,32.0,29.52,West,270,1.1,-999.0,75,-99.99,,,0.23,Acu-Link.com,2013-02-27 23:25:00,
2013-02-27 18:40:00,37.9,31.7,29.53,SW,225,2.7,-999.0,78,-99.99,,,0.23,Acu-Link.com,2013-02-27 23:40:00,
2013-02-27 18:55:00,37.2,31.3,29.53,West,270,4.7,-999.0,79,-99.99,,,0.23,Acu-Link.com,2013-02-27 23:55:00,
2013-02-27 19:10:00,37.0,31.4,29.53,NNW,337,1.7,-999.0,80,-99.99,,,0.23,Acu-Link.com,2013-02-28 00:10:00,
2013-02-27 19:26:00,36.1,31.1,29.54,West,270,2.7,-999.0,82,-99.99,,,0.23,Acu-Link.com,2013-02-28 00:26:00,
2013-02-27 19:41:00,36.1,31.1,29.55,SW,225,5.3,-999.0,82,-99.99,,,0.23,Acu-Link.com,2013-02-28 00:41:00,
2013-02-27 19:56:00,36.0,31.3,29.54,West,270,5.3,-999.0,83,-99.99,,,0.23,Acu-Link.com,2013-02-28 00:56:00,
2013-02-27 20:12:00,35.6,31.0,29.54,WSW,247,3.7,-999.0,83,-99.99,,,0.23,Acu-Link.com,2013-02-28 01:12:00,
2013-02-27 20:27:00,35.4,30.8,29.54,West,270,4.7,-999.0,83,-99.99,,,0.23,Acu-Link.com,2013-02-28 01:27:00,
2013-02-27 20:42:00,35.2,30.9,29.54,West,270,7.8,-999.0,84,-99.99,,,0.23,Acu-Link.com,2013-02-28 01:42:00,
2013-02-27 20:57:00,35.2,31.2,29.54,WSW,247,5.8,-999.0,85,-99.99,,,0.23,Acu-Link.com,2013-02-28 01:57:00,
2013-02-27 21:12:00,35.4,31.6,29.55,West,270,7.8,-999.0,86,-99.99,,,0.23,Acu-Link.com,2013-02-28 02:12:00,
2013-02-27 21:28:00,36.3,31.9,29.54,West,270,10.4,-999.0,84,-99.99,,,0.23,Acu-Link.com,2013-02-28 02:28:00,
2013-02-27 21:43:00,36.7,32.0,29.53,WSW,247,8.3,-999.0,83,-99.99,,,0.23,Acu-Link.com,2013-02-28 02:43:00,
2013-02-27 21:58:00,36.3,31.6,29.53,WSW,247,6.8,-999.0,83,-99.99,,,0.23,Acu-Link.com,2013-02-28 02:58:00,
2013-02-27 22:13:00,36.0,31.3,29.53,West,270,6.3,-999.0,83,-99.99,,,0.23,Acu-Link.com,2013-02-28 03:13:00,
2013-02-27 22:28:00,36.0,31.3,29.52,WSW,247,15.0,-999.0,83,-99.99,,,0.23,Acu-Link.com,2013-02-28 03:28:00,
2013-02-27 22:43:00,36.5,31.2,29.52,SW,225,13.5,-999.0,81,-99.99,,,0.23,Acu-Link.com,2013-02-28 03:43:00,
2013-02-27 22:58:00,36.1,30.8,29.52,West,270,12.5,-999.0,81,-99.99,,,0.23,Acu-Link.com,2013-02-28 03:58:00,
2013-02-27 23:14:00,35.6,30.7,29.51,West,270,10.9,-999.0,82,-99.99,,,0.23,Acu-Link.com,2013-02-28 04:14:00,
2013-02-27 23:29:00,35.2,30.0,29.51,SW,225,16.6,-999.0,81,-99.99,,,0.23,Acu-Link.com,2013-02-28 04:29:00,
2013-02-27 23:44:00,34.9,30.0,29.51,West,270,12.5,-999.0,82,-99.99,,,0.23,Acu-Link.com,2013-02-28 04:44:00,
2013-02-27 23:59:00,34.5,29.6,29.51,SW,225,10.4,-999.0,82,-99.99,,,0.23,Acu-Link.com,2013-02-28 04:59:00,